Regional Weather Roundup
Issued by NWS Albany, NY

Home | Current Version | Previous Version | Text Only | Print | Product List | Glossary On
Versions: 1 2 3 4 5 6 7 8 9 10 11 12 13 14 15 16 17 18 19 20 21 22 23 24 25 26 27
000
ASUS41 KALY 051810
RWRALY

NEW YORK STATE HOURLY WEATHER ROUNDUP
NATIONAL WEATHER SERVICE ALBANY NY
100 PM EST MON DEC 05 2016

NOTE: "FAIR" INDICATES FEW OR NO CLOUDS BELOW 12,000 FEET WITH NO
SIGNIFICANT WEATHER AND/OR NO OBSTRUCTIONS TO VISIBILITY.

NYZ032-033-038>043-046>054-057>066-NYZ062>081-082-084-051900-
EAST


CITY           SKY/WX    TMP DP  RH WIND       PRES   REMARKS
ALBANY         CLOUDY    38  33  82 S7        29.91S WCI  33
GLENS FALLS    CLOUDY    34  29  82 S7        29.88F HAZE    WCI  28
POUGHKEEPSIE   CLOUDY    41  36  82 W5        29.93F
NEWBURGH       PTSUNNY   41  37  87 SW8       29.94F
MONTGOMERY     CLOUDY    41  36  82 S9        29.92F
WHITE PLAINS   MOSUNNY   46  37  71 W10       29.92F
ISLIP          MOSUNNY   50  38  63 NW10      29.93F
NEW YORK CITY  MOSUNNY   50  36  58 W12       29.94F
CENTRAL PARK   SUNNY     48  35  60 W8G18     29.97F
$$

NYZ005>009-017-018-044>046-055-056-051900-
CENTRAL


CITY           SKY/WX    TMP DP  RH WIND       PRES   REMARKS
FULTON         LGT RAIN  38  32  79 W9        29.91R WCI  31
SYRACUSE       CLOUDY    39  31  72 W15       29.91S WCI  31
ROME           LGT RAIN  37  32  82 W14G23    29.91R WCI  28
ELMIRA         CLOUDY    43  30  60 W12G24    29.94R
BINGHAMTON     CLOUDY    36  30  79 W9G17     29.90R WCI  29
MONTICELLO     CLOUDY    36  34  93 W9        29.90F WCI  29
$$

NYZ026>034-041>043-087-051900-
NORTH


CITY           SKY/WX    TMP DP  RH WIND       PRES   REMARKS
WATERTOWN      CLOUDY    38  32  79 W18       29.88R WCI  28
FORT DRUM      NOT AVBL
OGDENSBURG     CLOUDY    36  33  90 W8        29.85R WCI  29
MASSENA        LGT SNOW  31  28  89 CALM      29.85R FOG
SARANAC LAKE   SNOW      29  27  92 SW7       29.76R VSB 1/2 WCI  22
PLATTSBURGH    FLURRIES  33  28  81 S3        29.83S
$$

NYZ001>004-010>016-019>021-085-051900-
WEST


CITY           SKY/WX    TMP DP  RH WIND       PRES   REMARKS
NIAGARA FALLS  CLOUDY    41  30  65 W15       29.96R
BUFFALO        PTSUNNY   39  28  64 W15G23    29.96R WCI  31
DUNKIRK        CLOUDY    41  32  70 W16G25    30.00R
JAMESTOWN      CLOUDY    37  28  70 W14G20    29.96S WCI  29
WELLSVILLE     CLOUDY    36  30  79 W15       29.94R WCI  27
ROCHESTER      MOSUNNY   42  31  64 W22G29    29.93S
PENN YAN       CLOUDY    40  28  62 W7        29.93S
$$

             KEY
       WCI = WIND CHILL INDEX
       VSB = VISIBILITY
       HX  = HEAT INDEX
$$




USA.gov is the U.S. government's official web portal to all federal, state and local government web resources and services.